Volver al catálogo

ONEWEB-0631

ActivoComunicacionesPO
NORAD 55171·PAYLOAD·🇬🇧 United Kingdom

Lanzado Jan 10, 2023 desde Cape Canaveral Space Force Station

Loading…

Próximos Pases (próximas 24 horas)

TLE

ActualizadoSource: CelesTrak SupGP

Época: Sep 14, 2026, 15:48 UTC

1 55171C 23004AH  26257.65884676  .00001864  00000+0  47350-2 0  2576
2 55171  87.9165 317.6627 0001493 106.9655   2.7554 13.18682228    13

Sigue ONEWEB-0631 en tiempo real con AllMySat

Download on the App Store